Total_Precipitation_Accumulation
2.32 2.25 2.28 2.24 2.16 2.02 1.94 1.90 1.88 1.77 1.71 1.64 1.61 1.59 1.50 1.46 1.47 1.50 1.46 1.47 1.58 1.61 1.58 1.58 1.60 1.68 1.76 1.72 1.78 1.90 2.07 2.32 2.48 2.22 2.07 2.00 1.96 1.97 1.97 1.81 1.70 1.61 1.47
1.93 2.02 2.09 1.99 1.93 1.86 1.82 1.83 1.81 1.67 1.61 1.57 1.56 1.49 1.32 1.25 1.34 1.41 1.38 1.35 1.47 1.48 1.44 1.51 1.52 1.58 1.67 1.70 1.79 1.88 1.98 2.18 2.32 2.36 2.20 2.07 1.98 1.95 1.96 1.87 1.57 1.43 1.40
1.66 1.68 1.75 1.75 1.70 1.68 1.53 1.51 1.53 1.50 1.49 1.43 1.36 1.34 1.28 1.18 1.20 1.22 1.23 1.22 1.27 1.33 1.34 1.41 1.47 1.56 1.57 1.62 1.70 1.77 1.88 1.97 2.18 2.26 2.14 2.05 1.97 1.87 2.02 1.87 1.71 1.78 1.46
1.54 1.65 1.64 1.64 1.67 1.69 1.62 1.52 1.45 1.38 1.34 1.33 1.24 1.18 1.18 1.12 1.01 0.96 1.01 1.09 1.18 1.19 1.18 1.29 1.37 1.45 1.47 1.56 1.59 1.68 1.77 1.96 2.13 2.19 2.05 1.93 1.87 1.89 2.03 2.02 1.91 1.82 1.66
1.38 1.50 1.58 1.53 1.48 1.52 1.58 1.46 1.29 1.21 1.13 1.13 1.08 1.03 1.05 0.98 0.84 0.87 0.92 0.95 1.07 1.11 1.11 1.17 1.22 1.26 1.27 1.30 1.28 1.45 1.64 1.83 1.94 2.03 1.97 1.91 1.87 1.99 1.99 1.92 1.87 1.84 1.69
1.27 1.42 1.49 1.47 1.40 1.38 1.44 1.40 1.34 1.26 1.20 1.16 1.12 1.06 0.99 0.85 0.82 0.77 0.79 0.87 0.97 1.08 1.17 1.17 1.08 1.06 1.02 0.96 1.00 1.12 1.34 1.60 1.86 1.98 1.93 1.91 1.90 1.97 2.06 2.03 1.99 2.04 1.98
1.34 1.32 1.36 1.40 1.44 1.42 1.38 1.39 1.39 1.41 1.38 1.28 1.16 1.09 1.02 0.91 0.81 0.67 0.66 0.73 0.93 1.08 1.18 1.17 0.97 0.89 1.00 1.00 1.03 1.04 1.12 1.25 1.53 1.84 1.94 1.84 1.89 2.01 2.19 2.23 2.17 2.15 2.09
1.33 1.24 1.24 1.24 1.26 1.26 1.30 1.35 1.36 1.38 1.36 1.29 1.18 1.11 1.05 0.84 0.72 0.63 0.66 0.70 0.84 0.89 0.92 1.01 1.09 1.09 1.01 1.04 1.05 1.15 1.22 1.31 1.39 1.54 1.76 1.73 1.70 1.87 2.08 2.11 2.09 2.05 1.99
1.22 1.13 1.07 1.03 1.08 1.09 1.15 1.27 1.38 1.39 1.29 1.18 1.10 1.06 1.01 0.85 0.76 0.72 0.73 0.76 0.83 0.78 0.76 0.83 0.89 0.93 0.92 0.98 1.08 1.28 1.35 1.45 1.42 1.58 1.59 1.52 1.53 1.59 1.62 1.76 2.05 2.24 2.14
1.18 1.06 0.97 0.96 1.04 1.07 1.12 1.24 1.33 1.37 1.23 1.05 0.98 0.99 0.93 0.88 0.77 0.65 0.63 0.65 0.77 0.79 0.82 0.88 0.82 0.73 0.78 0.89 1.10 1.37 1.54 1.59 1.62 1.74 1.70 1.67 1.58 1.54 1.49 1.58 1.96 2.26 2.25
1.03 1.00 0.97 1.00 1.08 1.08 1.19 1.28 1.24 1.15 1.12 1.03 0.99 0.98 0.87 0.73 0.64 0.54 0.53 0.57 0.69 0.77 0.81 0.89 0.89 0.74 0.67 0.74 0.96 1.20 1.39 1.45 1.68 1.93 1.80 1.64 1.60 1.57 1.54 1.55 1.75 1.93 1.94
0.95 0.98 1.02 1.01 0.95 0.95 1.14 1.23 1.17 1.13 1.10 1.06 1.03 0.98 0.85 0.70 0.60 0.53 0.46 0.44 0.49 0.67 0.85 0.88 0.88 0.82 0.75 0.82 0.96 1.13 1.25 1.45 1.68 1.82 1.64 1.47 1.39 1.37 1.42 1.39 1.39 1.43 1.51
0.95 1.07 1.10 1.01 1.06 1.05 1.06 1.12 1.17 1.18 1.07 0.99 0.98 0.92 0.84 0.76 0.65 0.52 0.45 0.42 0.46 0.57 0.76 0.84 0.82 0.77 0.86 1.06 1.19 1.29 1.44 1.67 1.73 1.62 1.50 1.37 1.26 1.30 1.29 1.29 1.29 1.34 1.33
1.00 1.09 1.09 1.08 1.16 1.16 1.07 0.94 0.91 0.93 0.90 0.86 0.85 0.80 0.80 0.80 0.67 0.56 0.55 0.51 0.53 0.60 0.73 0.89 0.94 0.94 1.08 1.26 1.39 1.48 1.60 1.70 1.57 1.44 1.39 1.28 1.18 1.26 1.30 1.26 1.37 1.43 1.43
0.94 0.99 1.02 1.02 1.06 1.12 1.02 0.87 0.81 0.74 0.67 0.64 0.62 0.58 0.64 0.65 0.53 0.50 0.48 0.52 0.59 0.65 0.74 0.91 1.05 1.09 1.19 1.33 1.45 1.51 1.56 1.57 1.50 1.38 1.31 1.25 1.19 1.19 1.16 1.12 1.25 1.35 1.40
0.87 0.84 0.79 0.83 0.86 0.88 0.88 0.82 0.63 0.47 0.40 0.35 0.36 0.38 0.38 0.39 0.37 0.36 0.38 0.45 0.53 0.65 0.80 1.06 1.14 1.13 1.16 1.23 1.34 1.45 1.45 1.44 1.40 1.42 1.40 1.37 1.30 1.20 1.17 1.12 1.14 1.23 1.33
0.81 0.77 0.65 0.62 0.68 0.71 0.72 0.81 0.74 0.51 0.31 0.23 0.23 0.28 0.30 0.29 0.30 0.30 0.34 0.42 0.50 0.63 0.81 1.04 1.15 1.18 1.20 1.22 1.25 1.31 1.37 1.38 1.32 1.34 1.37 1.32 1.22 1.14 1.11 1.13 1.13 1.21 1.25
0.63 0.59 0.57 0.62 0.61 0.58 0.57 0.59 0.63 0.69 0.61 0.46 0.33 0.30 0.29 0.31 0.34 0.33 0.37 0.44 0.51 0.59 0.80 0.99 1.09 1.14 1.18 1.22 1.22 1.21 1.26 1.31 1.26 1.22 1.26 1.25 1.17 1.13 1.13 1.15 1.15 1.12 1.14
0.56 0.54 0.54 0.53 0.51 0.48 0.46 0.45 0.47 0.55 0.60 0.61 0.54 0.44 0.40 0.40 0.42 0.43 0.48 0.55 0.64 0.69 0.76 0.88 0.98 1.05 1.06 1.08 1.14 1.16 1.20 1.24 1.19 1.15 1.18 1.20 1.19 1.16 1.10 1.02 0.98 0.89 0.96
0.49 0.45 0.46 0.48 0.42 0.40 0.41 0.44 0.44 0.50 0.55 0.56 0.59 0.57 0.55 0.61 0.69 0.64 0.60 0.63 0.67 0.67 0.68 0.79 0.89 0.92 0.93 0.89 0.92 0.96 1.00 1.02 1.02 1.06 1.12 1.09 1.04 1.00 0.93 0.87 0.87 0.88 0.92
0.45 0.46 0.46 0.40 0.35 0.34 0.39 0.41 0.40 0.44 0.49 0.51 0.47 0.49 0.65 0.71 0.77 0.73 0.70 0.75 0.80 0.78 0.74 0.77 0.80 0.83 0.83 0.81 0.80 0.79 0.83 0.88 0.90 0.93 0.99 0.98 0.91 0.87 0.83 0.77 0.75 0.75 0.76
0.42 0.43 0.41 0.37 0.35 0.33 0.34 0.35 0.36 0.41 0.46 0.51 0.50 0.51 0.65 0.67 0.71 0.74 0.78 0.86 0.90 0.87 0.82 0.82 0.80 0.78 0.79 0.79 0.75 0.74 0.76 0.80 0.81 0.83 0.85 0.84 0.81 0.76 0.68 0.66 0.64 0.63 0.64
0.40 0.41 0.41 0.40 0.38 0.36 0.36 0.36 0.37 0.41 0.44 0.48 0.53 0.56 0.62 0.70 0.75 0.82 0.89 0.91 0.92 0.92 0.86 0.81 0.88 0.91 0.84 0.77 0.70 0.67 0.68 0.70 0.69 0.74 0.84 0.84 0.76 0.68 0.63 0.60 0.59 0.59 0.58
0.39 0.38 0.39 0.41 0.44 0.47 0.47 0.45 0.40 0.37 0.38 0.41 0.47 0.49 0.55 0.62 0.69 0.75 0.83 0.87 0.93 0.95 0.92 0.89 0.93 0.88 0.76 0.72 0.67 0.65 0.66 0.70 0.69 0.72 0.75 0.78 0.73 0.64 0.57 0.56 0.55 0.57 0.60
0.38 0.39 0.39 0.38 0.38 0.41 0.46 0.47 0.45 0.43 0.42 0.40 0.41 0.45 0.49 0.55 0.60 0.65 0.73 0.77 0.82 0.90 0.87 0.85 0.85 0.76 0.67 0.62 0.60 0.61 0.68 0.66 0.62 0.67 0.72 0.75 0.68 0.61 0.56 0.52 0.52 0.54 0.56
0.35 0.36 0.38 0.37 0.34 0.34 0.35 0.36 0.37 0.41 0.46 0.46 0.43 0.45 0.50 0.51 0.54 0.59 0.62 0.67 0.73 0.77 0.77 0.81 0.80 0.70 0.61 0.58 0.57 0.55 0.50 0.43 0.40 0.47 0.60 0.65 0.58 0.53 0.54 0.54 0.50 0.53 0.57